Regional Weather Roundup
Issued by NWS

Home | Current Version | Previous Version | Text Only | Print | Product List | Glossary Off
Versions: 1 2 3 4 5 6 7 8 9 10 11 12 13 14 15 16 17 18 19 20 21 22 23 24 25 26 27 28 29 30 31 32 33 34 35 36 37 38 39 40 41 42 43 44 45 46 47 48 49 50

000
ASUS43 KDTX 252001
RWRMI
MICHIGAN HOURLY REGIONAL WEATHER ROUNDUP
NATIONAL WEATHER SERVICE DETROIT/PONTIAC MI
400 PM EDT MON SEP 25 2017

NOTE: "FAIR" INDICATES FEW OR NO CLOUDS BELOW 12,000 FEET WITH NO
SIGNIFICANT WEATHER AND/OR OBSTRUCTION TO VISIBILITY.

MIZ047>049-052>055-059>063-066>070-074>076-081>083-252100-
SOUTHEAST LOWER MICHIGAN

CITY           SKY/WX    TMP DP  RH WIND       PRES   REMARKS
ADRIAN         SUNNY     89  58  34 VRB5      30.00F
ALMA           CLOUDY    88  49  26 S3        30.00F
ANN ARBOR      MOSUNNY   90  60  36 SE6       29.99F
BAD AXE        MOSUNNY   87  65  47 SE5       30.01F
CARO           MOSUNNY   89  59  35 SW5       30.00S
DETROIT CITY   PTSUNNY   87  67  51 SE8       30.01F HX  90
DETROIT        PTSUNNY   89  64  43 SE7       30.01F HX  90
FLINT          PTSUNNY   91  60  35 VRB3      30.00F HX  90
GROSSE ILE     SUNNY     83  64  53 S3        30.00F
HILLSDALE      MOSUNNY   88  57  35 S6        30.01F
HOWELL         MOSUNNY   90  56  31 S5        30.00F

CITY           SKY/WX    TMP DP  RH WIND       PRES   REMARKS
JACKSON        SUNNY     89  57  33 S6        30.00F
LAMBERTVILLE   MOSUNNY   88  65  46 E3        29.99F HX  90
LANSING        MOSUNNY   89  57  33 VRB3      30.00F
LAPEER         FAIR      88  60  38 CALM      30.01F
MASON          MOSUNNY   88  57  34 CALM      30.01S
MONROE         SUNNY     88  60  38 SE7       29.99F
MT. CLEMENS    PTSUNNY   87  66  49 SE7       29.99F
PONTIAC        PTSUNNY   89  59  36 VRB7      30.00F
PORT HOPE        N/A     74  68  81 E14       30.01F
PORT HURON     CLOUDY    91  64  40 S3        30.00F HX  93
TRI CITIES     CLOUDY    89  61  38 CALM      30.00F
MIDLAND        FAIR      88  60  38 CALM      29.99F
TROY           MOSUNNY   91  59  33 S9        30.02F HX  90
SAGINAW HB     MOSUNNY   90  57  33 W7        29.99F
$$
MIZ043>046-050>051-056>058-064>065-071>073-077>080-252100-
SOUTHWEST LOWER MICHIGAN

CITY           SKY/WX    TMP DP  RH WIND       PRES   REMARKS
BATTLE CREEK   MOSUNNY   89  54  30 MISG      30.01F
BENTON HARBOR  MOSUNNY   89  54  30 SE9       29.98F
BIG RAPIDS     SUNNY     89  46  22 SE10      29.98F
COLDWATER      SUNNY     88  53  29 SE6       30.01S
FREMONT        FAIR      90  49  24 S3        29.98S
HOLLAND        PTSUNNY   88  57  34 SW5       29.98F
GRAND RAPIDS   CLOUDY    90  52  27 SW8       29.99F
IONIA          FAIR      88  51  28 S7        29.99F
KALAMAZOO      MOSUNNY   89  47  23 S6        30.00F
LUDINGTON      SUNNY     79  63  57 W8        29.97S
MARSHALL       MOSUNNY   88  57  34 CALM      29.99F
MOUNT PLEASANT MOSUNNY   90  50  25 SW8       29.99F
MUSKEGON       MOSUNNY   88  57  34 SW8       29.98F
SOUTH HAVEN    CLOUDY    89  52  28 CALM      29.98F
$$
MIZ016>042-252100-
NORTHERN LOWER MICHIGAN

CITY           SKY/WX    TMP DP  RH WIND       PRES   REMARKS
ALPENA         MOSUNNY   85  70  60 E8        30.00F
BEAVER ISLAND  SUNNY     81  61  50 SW7       29.98F
BELLAIRE       SUNNY     89  50  26 W5        29.97F
CADILLAC       SUNNY     88  44  21 CALM      30.00F
CHARLEVOIX     SUNNY     88  57  35 NW6       30.00F
FRANKFORT      SUNNY     82  62  50 W5        29.97F
GAYLORD        MOSUNNY   84  50  30 CALM      30.01F
GRAYLING       MOSUNNY   88  50  26 S5        30.01F
HARBOR SPRINGS SUNNY     88  57  35 W3        29.98S
HOUGHTON LAKE  SUNNY     88  51  28 W5        30.01F
MANISTEE       SUNNY     88  63  43 W9        29.96F
OSCODA         MOSUNNY   82  65  56 SE8       30.01S
PELLSTON       SUNNY     89  58  34 W8        29.99F
ROGERS CITY    MOSUNNY   89  54  29 SW6       29.99F
TRAVERSE CITY  MOSUNNY   92  49  22 SW8       29.94F
$$
MIZ007>008-015-252100-
EASTERN UPPER MICHIGAN

CITY           SKY/WX    TMP DP  RH WIND       PRES   REMARKS
KINROSS        SUNNY     86  62  44 W8        29.98F
MACKINAC ISLAN SUNNY     82  59  45 W3        29.99S
NEWBERRY       HAZE      83  64  52 S6        29.96F VSB 1/2
S. S. MARIE    SUNNY     88  63  43 S10       29.96F
MUNISING         N/A     72  66  81 NE12      29.95S
$$
MIZ004>006-011>014-085-252100-
CENTRAL UPPER MICHIGAN

CITY           SKY/WX    TMP DP  RH WIND       PRES   REMARKS
MANISTIQUE     SUNNY     73  67  81 S9        29.96F
MENOMINEE      SUNNY     83  65  54 S12       29.93F
SAWYER-GWINN   SUNNY     79  66  65 NE9       29.96F
$$
MIZ001>003-009>011-084-252100-
WESTERN UPPER MICHIGAN

CITY           SKY/WX    TMP DP  RH WIND       PRES   REMARKS
IRON MOUNTAIN  PTSUNNY   83  64  52 W7        29.92F
HOUGHTON       CLOUDY    70  61  73 NW12      29.96F
COPPER HARBOR    N/A     66  61  84 N9        29.97S
IRONWOOD       CLOUDY    62  59  90 NW7       29.99S
$$

ABBREVIATIONS USED IN REMARKS
   TC - TEMPERATURE IN CELSIUS
  WCI - WIND CHILL INDEX
   HX - HEAT INDEX
  VSB - VISIBILITY





USA.gov is the U.S. government's official web portal to all federal, state and local government web resources and services.